Weather History for Springfield, VT

Change the Weather History Date:

Tuesday, May 1, 2012

  Actual Average Record
Temperature  
Mean Temperature 47 °F 51 °F  
Max Temperature 51 °F 63 °F 84 °F (2001)
Min Temperature 42 °F 38 °F 25 °F (2008)
Degree Days  
Heating Degree Days 18 14  
Month to date heating degree days 18 14  
Since 1 July heating degree days 5788 7120  
Cooling Degree Days 0 0  
Month to date cooling degree days 0 0  
Year to date cooling degree days 8 2  
Moisture  
Dew Point 40 °F    
Average Humidity 71    
Maximum Humidity 92    
Minimum Humidity 50    
Precipitation  
Precipitation 0.46 in 0.10 in 0.46 in (2012)
Month to date precipitation 0.46 0.10  
Year to date precipitation 8.44 12.63  
Sea Level Pressure  
Sea Level Pressure 30.12 in    
Wind  
Wind Speed 2 mph (East)    
Max Wind Speed 8 mph    
Max Gust Speed 12 mph    
Visibility 8 miles    
Events Rain    
T = Trace of Precipitation, MM = Missing Value Source: NWS Daily Summary

Daily Weather History Graph

Daily Weather History Graph

Search for Another Location

Airport:

Trip Planner

Search our weather history database for the weather conditions in past years. The results will help you decide how hot, cold, wet, or windy it might be!

Date:

Astronomy

May. 01, 2012 Rise Set
Actual Time 5:42 AM EDT 7:52 PM EDT
Civil Twilight 5:11 AM EDT 8:23 PM EDT
Nautical Twilight 4:32 AM EDT 9:02 PM EDT
Astronomical Twilight 3:50 AM EDT 9:45 PM EDT
Moon 2:44 PM EDT (5/1) 2:47 AM EDT (5/1)
Length of Visible Light 15h 12m
Length of Day
14h 09m
Waxing Gibbous, 73% of the Moon is Illuminated
May 1
Waxing Gibbous
May 5
Full
May 12
Last Quarter
May 20
New
May 28
First Quarter

Hourly Weather History & Observations

Time (EDT) Temp. Windchill Dew Point Humidity Pressure Visibility Wind Dir Wind Speed Gust Speed Precip Events Conditions
12:54 AM 51.1 °F - 35.1 °F 54% 30.16 in 10.0 mi Calm Calm - 0.00 in Rain Light Rain
1:54 AM 50.0 °F - 32.0 °F 50% 30.15 in 10.0 mi Calm Calm - 0.00 in Rain Light Rain
2:54 AM 46.0 °F 43.9 °F 37.9 °F 73% 30.15 in 10.0 mi South 4.6 mph - 0.02 in Rain Light Rain
3:54 AM 44.1 °F 42.5 °F 39.0 °F 82% 30.13 in 6.0 mi South 3.5 mph - 0.04 in Rain Rain
4:49 AM 42.8 °F 40.1 °F 39.2 °F 87% 30.12 in 5.0 mi South 4.6 mph - 0.05 in Rain Rain
5:06 AM 42.8 °F 38.6 °F 39.2 °F 87% 30.11 in 4.0 mi South 6.9 mph - 0.04 in Rain Rain
5:49 AM 42.8 °F 41.1 °F 39.2 °F 87% 30.10 in 10.0 mi Variable 3.5 mph - 0.06 in   Overcast
5:54 AM 43.0 °F 41.3 °F 39.0 °F 86% 30.12 in 10.0 mi Variable 3.5 mph - 0.06 in   Overcast
6:23 AM 42.8 °F 41.1 °F 39.2 °F 87% 30.10 in 9.0 mi South 3.5 mph - 0.00 in Rain Light Rain
6:32 AM 42.8 °F 41.1 °F 39.2 °F 87% 30.11 in 5.0 mi WSW 3.5 mph - 0.01 in Rain Light Rain
6:54 AM 43.0 °F - 39.0 °F 86% 30.11 in 8.0 mi Calm Calm - 0.03 in Rain Light Rain
7:41 AM 42.8 °F - 39.2 °F 87% 30.10 in 4.0 mi Calm Calm - 0.04 in Rain Light Rain
7:54 AM 43.0 °F - 39.0 °F 86% 30.11 in 5.0 mi Calm Calm - 0.05 in Rain Light Rain
8:54 AM 43.0 °F 41.3 °F 39.9 °F 89% 30.10 in 6.0 mi Variable 3.5 mph - 0.05 in Rain Light Rain
10:54 AM 44.1 °F - 42.1 °F 93% 30.11 in 6.0 mi Calm Calm - 0.03 in Rain Light Rain
11:18 AM 44.6 °F - 41.0 °F 87% 30.10 in 8.0 mi Calm Calm - 0.01 in Rain Light Rain
11:43 AM 44.6 °F - 42.8 °F 93% 30.09 in 5.0 mi Calm Calm - 0.02 in Rain Light Rain
11:54 AM 45.0 °F - 42.1 °F 90% 30.10 in 3.0 mi Calm Calm - 0.03 in Rain Light Rain
12:03 PM 44.6 °F - 42.8 °F 93% 30.09 in 4.0 mi Calm Calm - 0.00 in Rain Light Rain
12:33 PM 46.4 °F - 42.8 °F 87% 30.08 in 9.0 mi Calm Calm - 0.01 in Rain Light Rain
12:54 PM 46.0 °F - 42.1 °F 86% 30.10 in 6.0 mi Calm Calm - 0.01 in Rain Light Rain
2:11 PM 46.4 °F 43.5 °F 42.8 °F 87% 30.08 in 10.0 mi East 5.8 mph - N/A   Overcast
2:26 PM 46.4 °F 44.3 °F 42.8 °F 87% 30.08 in 7.0 mi NE 4.6 mph - N/A   Overcast
2:41 PM 46.4 °F 44.3 °F 42.8 °F 87% 30.08 in 6.0 mi NE 4.6 mph - N/A   Overcast
2:54 PM 46.9 °F - 43.0 °F 86% 30.09 in 5.0 mi NE 3.5 mph - 0.00 in Rain Light Rain
4:54 PM 46.9 °F - 42.1 °F 83% 30.11 in 10.0 mi ENE 4.6 mph - N/A   Overcast
5:54 PM 46.9 °F - 41.0 °F 80% 30.11 in 10.0 mi ENE 5.8 mph - N/A   Overcast
6:54 PM 46.0 °F 44.8 °F 41.0 °F 83% 30.12 in 10.0 mi ENE 3.5 mph - N/A   Overcast
7:54 PM 46.0 °F 44.8 °F 41.0 °F 83% 30.14 in 10.0 mi NE 3.5 mph - N/A   Overcast
8:14 PM 46.4 °F - 39.2 °F 76% 30.13 in 10.0 mi Calm Calm - N/A   Overcast
8:54 PM 45.0 °F 43.5 °F 39.9 °F 82% 30.15 in 10.0 mi NE 3.5 mph - N/A   Overcast
9:38 PM 44.6 °F 43.1 °F 39.2 °F 81% 30.13 in 10.0 mi ENE 3.5 mph - N/A   Overcast
9:54 PM 45.0 °F - 39.9 °F 82% 30.15 in 10.0 mi Calm Calm - N/A   Overcast
10:03 PM 44.6 °F - 39.2 °F 81% 30.14 in 10.0 mi Calm Calm - N/A   Overcast
10:54 PM 45.0 °F - 39.9 °F 82% 30.17 in 10.0 mi Calm Calm - N/A   Overcast
11:54 PM 45.0 °F - 41.0 °F 86% 30.17 in 10.0 mi Calm Calm - N/A   Overcast